Tracking 20083 objects as of 8-Dec-2019
HD Live streaming from Space Station
objects crossing your sky now

FENGYUN 1C DEB

Track FENGYUN 1C DEB now!
10-day predictions


NORAD ID: 32106
Int'l Code: 1999-025CQY
Perigee: 792.2 km
Apogee: 1,014.9 km
Inclination: 101.5 °
Period: 102.9 minutes
Semi major axis: 7274 km
RCS: 0.0084 m2 (small)
Launch date: May 10, 1999
Source: People's Republic of China (PRC)
Launch site: Taiyaun Space Center, China (TSC)

Note: This is SATELLITE DEBRIS
aabbcc
Your satellite tracking list
Your tracking list is empty




NASA's NSSDC Master Catalog

Two Line Element Set (TLE):
1 32106U 99025CQY 19183.89983283  .00000691  00000-0  47178-3 0  9995
2 32106 101.5005 214.3773 0153078 309.4902  49.2799 13.99242310607236
Source of the keplerian elements: AFSPC